Date String (YYYY-MM-DD hh:mm:ss) UTC,Instrument flags,absolute air pressure of the measurement (hPa),sample flow rate (lpm),inlet stack bypass flow (lpm),air temperature of the measurement (°C),ambient temperature measured by the external sensor (°C),aerosol sample conditioner tube jacket temperature (°C),OPC LED temperature (°C),internal box temperature (°C),relative humidity of the measurement (%),span deviation,mass concentration of particles derived from Lorenz-Mie calculation of OPC scattering (μg/m³),mass concentration of particles derived from Lorenz-Mie calculation of OPC scattering (μg/m³),mass concentration of particles derived from Lorenz-Mie calculation of OPC scattering (μg/m³)
DateTimeUTC,F1_M11,P_M11,Q1_M11,Q2_M11,T1_M11,T2_M11,T3_M11,T4_M11,T5_M11,U1_M11,ZSPAN_M11,X2_M11,X0_M11,X1_M11
2024-06-04 06:00:00,SystemResetWarning,0822.0,5.00,000.00,030.6,030.0,000.0,038.7,032.3,017.3,0000.0,0003.20,0008.44,0002.15
2024-06-04 06:01:00,SystemResetWarning,0822.0,5.01,000.00,030.6,030.0,000.0,038.7,032.3,017.4,0000.0,0003.19,0008.48,0002.14
2024-06-04 06:02:00,SystemResetWarning,0822.0,5.00,000.00,030.6,030.0,000.0,038.7,032.3,017.2,0000.0,0003.17,0007.85,0002.12
2024-06-04 06:03:00,SystemResetWarning,0822.1,4.98,000.00,030.5,028.4,000.0,038.8,031.5,017.4,0000.0,0003.13,0008.01,0002.10
2024-06-04 06:04:00,SystemResetWarning,0822.0,5.02,000.00,030.0,026.5,000.0,038.8,030.6,017.9,0000.0,0003.12,0007.80,0002.10
2024-06-04 06:05:00,SystemResetWarning,0822.0,5.01,000.00,029.8,026.7,000.0,038.7,030.5,018.2,0000.0,0003.08,0007.76,0002.07
2024-06-04 06:06:00,SystemResetWarning,0822.1,5.00,000.00,029.7,027.1,000.0,038.6,030.8,018.3,0000.0,0002.96,0007.58,0002.05
2024-06-04 06:07:00,SystemResetWarning,0822.1,5.00,000.00,029.7,027.5,000.0,038.5,031.0,018.2,0000.0,0002.96,0007.60,0002.05
2024-06-04 06:08:00,SystemResetWarning,0822.2,4.99,000.00,029.7,027.9,000.0,038.4,031.2,018.2,0000.0,0003.03,0007.53,0002.04
2024-06-04 06:09:00,SystemResetWarning,0822.4,4.99,000.00,029.8,028.2,000.0,038.4,031.3,018.2,0000.0,0003.09,0008.29,0002.05
2024-06-04 06:10:00,SystemResetWarning,0822.4,5.00,000.00,029.8,028.5,000.0,038.3,031.4,018.3,0000.0,0003.11,0008.34,0002.04
2024-06-04 06:11:00,SystemResetWarning,0822.4,5.00,000.00,029.8,028.7,000.0,038.3,031.5,018.3,0000.0,0003.12,0008.37,0002.03
2024-06-04 06:12:00,SystemResetWarning,0822.4,5.01,000.00,029.9,028.9,000.0,038.3,031.6,018.3,0000.0,0003.14,0008.29,0002.03
2024-06-04 06:13:00,SystemResetWarning,0822.4,5.00,000.00,029.9,029.0,000.0,038.3,031.6,018.2,0000.0,0003.13,0008.43,0002.02
2024-06-04 06:14:00,SystemResetWarning,0822.4,4.99,000.00,030.0,029.2,000.0,038.3,031.7,018.2,0000.0,0003.13,0007.92,0002.02
2024-06-04 06:15:00,SystemResetWarning,0822.2,4.99,000.00,030.0,029.3,000.0,038.3,031.7,018.0,0000.0,0003.14,0008.02,0002.01
2024-06-04 06:16:00,SystemResetWarning,0822.0,5.01,000.00,030.0,029.3,000.0,038.3,031.7,017.9,0000.0,0003.15,0008.83,0002.02
2024-06-04 06:17:00,SystemResetWarning,0822.2,5.01,000.00,030.1,029.4,000.0,038.3,031.8,018.0,0000.0,0003.15,0009.52,0002.04
2024-06-04 06:18:00,SystemResetWarning,0822.2,4.99,000.00,030.1,029.5,000.0,038.3,031.8,018.0,0000.0,0003.14,0009.93,0002.02
2024-06-04 06:19:00,SystemResetWarning,0822.4,4.99,000.00,030.2,029.6,000.0,038.4,031.9,018.1,0000.0,0003.12,0009.83,0002.00
2024-06-04 06:20:00,SystemResetWarning,0822.2,5.00,000.00,030.2,029.6,000.0,038.4,031.9,018.2,0000.0,0003.11,0009.62,0001.96
2024-06-04 06:21:00,SystemResetWarning,0822.2,5.00,000.00,030.2,029.7,000.0,038.4,032.0,018.3,0000.0,0003.12,0009.90,0001.93
2024-06-04 06:22:00,SystemResetWarning,0822.1,5.00,000.00,030.3,029.7,000.0,038.5,032.0,018.3,0000.0,0003.11,0009.98,0001.89
2024-06-04 06:23:00,SystemResetWarning,0822.1,5.00,000.00,030.3,029.8,000.0,038.5,032.1,018.3,0000.0,0003.11,0010.79,0001.85
2024-06-04 06:24:00,SystemResetWarning,0822.0,5.00,000.00,030.3,029.8,000.0,038.5,032.1,018.3,0000.0,0003.11,0011.68,0001.82
2024-06-04 06:25:00,SystemResetWarning,0821.7,5.00,000.00,030.4,029.8,000.0,038.5,032.1,018.3,0000.0,0003.12,0013.24,0001.79
2024-06-04 06:26:00,SystemResetWarning,0821.9,5.00,000.00,030.4,029.9,000.0,038.6,032.2,018.1,0000.0,0003.13,0013.68,0001.75
2024-06-04 06:27:00,SystemResetWarning,0821.8,5.00,000.00,030.4,029.9,000.0,038.6,032.2,018.0,0000.0,0003.12,0013.03,0001.71
2024-06-04 06:28:00,SystemResetWarning,0822.0,5.01,000.00,030.5,029.9,000.0,038.6,032.2,018.0,0000.0,0003.10,0012.43,0001.67
2024-06-04 06:29:00,SystemResetWarning,0822.0,5.00,000.00,030.5,029.9,000.0,038.7,032.2,018.1,0000.0,0003.06,0011.71,0001.63
2024-06-04 06:30:00,SystemResetWarning,0822.1,4.99,000.00,030.5,030.0,000.0,038.7,032.3,018.0,0000.0,0002.99,0011.72,0001.61
2024-06-04 06:31:00,SystemResetWarning,0822.2,5.00,000.00,030.6,030.0,000.0,038.7,032.3,017.9,0000.0,0002.94,0011.66,0001.60
2024-06-04 06:32:00,SystemResetWarning,0822.3,5.00,000.00,030.6,030.0,000.0,038.8,032.3,018.0,0000.0,0002.85,0011.36,0001.58
2024-06-04 06:33:00,SystemResetWarning,0822.4,4.99,000.00,030.6,030.0,000.0,038.8,032.3,018.0,0000.0,0002.87,0011.35,0001.56
2024-06-04 06:34:00,SystemResetWarning,0822.2,5.00,000.00,030.6,030.0,000.0,038.8,032.3,018.1,0000.0,0002.82,0010.98,0001.53
2024-06-04 06:35:00,SystemResetWarning,0822.1,5.00,000.00,030.6,030.0,000.0,038.8,032.4,018.1,0000.0,0002.83,0009.66,0001.50
2024-06-04 06:36:00,SystemResetWarning,0822.1,5.00,000.00,030.6,030.0,000.0,038.8,032.4,018.1,0000.0,0002.79,0008.53,0001.46
2024-06-04 06:37:00,SystemResetWarning,0822.1,5.00,000.00,030.7,030.0,000.0,038.8,032.4,018.1,0000.0,0002.77,0008.87,0001.43
2024-06-04 06:38:00,SystemResetWarning,0822.1,5.00,000.00,030.7,030.0,000.0,038.9,032.4,018.1,0000.0,0002.63,0008.69,0001.38
2024-06-04 06:39:00,SystemResetWarning,0822.0,5.00,000.00,030.7,030.0,000.0,038.9,032.4,018.1,0000.0,0002.58,0009.22,0001.33
2024-06-04 06:40:00,SystemResetWarning,0822.1,5.01,000.00,030.7,030.1,000.0,038.9,032.4,018.1,0000.0,0002.55,0010.07,0001.29
2024-06-04 06:41:00,SystemResetWarning,0821.9,5.00,000.00,030.7,030.1,000.0,038.9,032.4,018.1,0000.0,0002.54,0010.54,0001.25
2024-06-04 06:42:00,SystemResetWarning,0821.9,5.00,000.00,030.7,030.0,000.0,038.9,032.4,018.1,0000.0,0002.50,0009.94,0001.20
2024-06-04 06:43:00,SystemResetWarning,0821.8,4.98,000.00,030.5,028.1,000.0,039.0,031.5,018.3,0000.0,0002.43,0010.10,0001.14
2024-06-04 06:44:00,SystemResetWarning,0821.6,5.03,000.00,030.1,026.1,000.0,039.0,030.6,018.8,0000.0,0002.29,0009.96,0001.11
2024-06-04 06:45:00,SystemResetWarning,0821.7,4.99,000.00,029.8,026.3,000.0,038.9,030.4,019.1,0000.0,0002.21,0009.88,0001.09
2024-06-04 06:46:00,SystemResetWarning,0821.9,4.99,000.00,029.7,026.8,000.0,038.7,030.7,019.3,0000.0,0002.17,0010.24,0001.07
2024-06-04 06:47:00,SystemResetWarning,0822.0,5.00,000.00,029.7,027.2,000.0,038.6,030.9,019.4,0000.0,0002.11,0010.75,0001.06
2024-06-04 06:48:00,SystemResetWarning,0821.6,5.01,000.00,029.7,027.6,000.0,038.5,031.1,019.4,0000.0,0002.02,0009.71,0001.05
2024-06-04 06:49:00,SystemResetWarning,0821.5,5.01,000.00,029.7,027.9,000.0,038.5,031.2,019.4,0000.0,0002.05,0009.27,0001.06
2024-06-04 06:50:00,SystemResetWarning,0821.4,5.00,000.00,029.7,028.1,000.0,038.4,031.3,019.4,0000.0,0002.05,0009.10,0001.05
2024-06-04 06:51:00,SystemResetWarning,0821.3,4.99,000.00,029.7,028.3,000.0,038.4,031.4,019.4,0000.0,0002.07,0008.54,0001.05
2024-06-04 06:52:00,SystemResetWarning,0821.3,5.00,000.00,029.7,028.5,000.0,038.4,031.4,019.3,0000.0,0002.07,0007.99,0001.03
2024-06-04 06:53:00,SystemResetWarning,0821.3,5.00,000.00,029.8,028.6,000.0,038.3,031.4,019.3,0000.0,0002.02,0008.23,0001.02
2024-06-04 06:54:00,SystemResetWarning,0821.3,5.00,000.00,029.8,028.7,000.0,038.3,031.5,019.3,0000.0,0002.02,0008.11,0001.02
2024-06-04 06:55:00,SystemResetWarning,0821.3,5.00,000.00,029.8,028.8,000.0,038.3,031.5,019.3,0000.0,0001.95,0008.04,0001.02
2024-06-04 06:56:00,SystemResetWarning,0821.3,5.00,000.00,029.8,028.9,000.0,038.3,031.6,019.3,0000.0,0001.93,0008.27,0001.01
2024-06-04 06:57:00,SystemResetWarning,0821.3,5.00,000.00,029.8,029.0,000.0,038.3,031.6,019.2,0000.0,0001.82,0007.64,0001.01
2024-06-04 06:58:00,SystemResetWarning,0821.4,5.00,000.00,029.9,029.0,000.0,038.3,031.7,019.2,0000.0,0001.82,0006.73,0001.00
2024-06-04 06:59:00,SystemResetWarning,0821.8,4.99,000.00,029.9,029.1,000.0,038.3,031.7,019.2,0000.0,0001.83,0006.59,0001.00
